Location: Huesca
(42.1318°N, 0.4078°W)
Time: 16:24:58
(UTC+02:00)

ACS3 Solar Sail - Pass Details

Date: 27 June 2024
Orbit: 992 x 1023 km, 97.4° (Epoch: 11 July)

Event Time Altitude Azimuth Distance (km) Brightness Sun altitude
Exits shadow 22:38:57 11° 135° (SE) 2,676 6.4 -9.2°
Maximum altitude 22:44:26 40° 69° (ENE) 1,421 5.5 -9.9°
Drops below altitude 10° 22:50:10 10° 2° (N) 2,765 7.8 -10.6°
Sets 22:52:46 0° 356° (N) 3,718 8.7 -11.0°
